#timestamp,LO_Frequency,Hit,StdDev 
1712642415.5,286047001.4,N
1712642435.3,286046998.7,N
1712642455.1,286047000.8,N
1712642475.9,286046999.6,N
1712642495.7,286046997.5,N
1712642515.6,286046999.1,N
1712642535.4,286046993.6,N
1712642555.2,286046993.7,N
1712642575.1,286046992.5,N
1712642576.0,286046992.5,N
1712642595.8,286046990.3,N
1712642615.6,286046988.1,N
1712642635.5,286046985.9,N
1712642655.3,286046984.5,N
1712642675.2,286046983.3,N
1712642695.9,286046984.7,N
1712642715.7,286046986.0,N
1712642735.6,286046986.8,N
1712642755.4,286046986.2,N
1712642775.2,286046984.2,N
1712642795.1,286046984.3,N
1712642796.0,286046984.3,N
1712642815.8,286046981.5,N
1712642835.7,286046982.9,N
1712642855.5,286046983.7,N
1712642875.3,286046984.0,N
1712642895.2,286046986.1,N
1712642915.0,286046990.9,N
1712642915.9,286046990.9,N
1712642935.8,286046990.8,N
1712642955.6,286046995.0,N
1712642975.4,286047000.2,N
1712642995.3,286046997.7,N
1712643015.1,286046999.6,N
1712643035.8,286047002.5,N
1712643055.7,286047004.9,N
1712643075.5,286047006.5,N
1712643095.4,286047006.7,N
1712643115.2,286047005.6,N
1712643135.0,286047000.1,N
1712643135.9,286047000.1,N
1712643155.8,286047000.4,N
1712643175.6,286046998.8,N
1712643195.5,286046999.4,N
1712643215.3,286046998.5,N
1712643235.1,286047000.8,N
1712643255.9,286046999.5,N
1712643275.7,286046997.1,N
1712643295.6,286046996.1,N
1712643315.4,286046991.7,N
1712643335.2,286046991.3,N
1712643355.1,286046988.8,N
1712643356.0,286046988.8,N
1712643375.8,286046990.5,N
1712643395.6,286046990.9,N
1712643415.5,286046985.5,N
1712643435.3,286046986.6,N
1712643455.2,286046979.1,Y
1712643475.9,286046982.2,P
1712643495.7,286046980.5,N
1712643515.6,286046979.6,N
1712643535.4,286046982.4,N
1712643555.2,286046982.8,N
1712643575.1,286046982.5,Y
1712643576.0,286046982.5,P
1712643595.8,286047003.1,P
1712643615.7,286047003.7,N
1712643635.5,286047005.2,N
1712643655.3,286047006.2,N
1712643675.2,286047005.8,N
1712643695.0,286047009.0,N
1712643695.9,286047009.0,N
1712643715.8,286047011.9,N
1712643735.6,286047007.9,N
1712643755.5,286047003.0,N
1712643775.3,286047000.4,N
1712643795.1,286046992.2,N
1712643815.9,286046994.1,N
1712643835.7,286046995.6,N
1712643855.5,286046998.1,N
1712643875.4,286046995.9,N
1712643895.2,286046995.1,N
1712643915.1,286047000.7,N
1712643916.0,286047000.7,N
1712643935.8,286046999.1,N
1712643955.6,286046997.8,N
1712643975.5,286047000.8,N
1712643995.3,286047007.1,N
1712644015.2,286047010.4,N
1712644035.9,286047004.8,N
1712644055.7,286047003.7,N
1712644075.6,286047005.0,N
1712644095.4,286047004.5,N
1712644115.2,286047006.6,N
1712644135.1,286047003.4,N
1712644136.0,286047003.4,N
1712644185.9,286046997.2,E
1712644195.8,286046999.0,N
1712644215.6,286046998.9,P
1712644235.5,286046998.9,P
1712644255.3,286046999.3,Y
1712644275.1,286046998.0,P
1712644295.9,286046994.7,P
1712644315.7,286046999.0,N
1712644335.5,286046989.3,Y
1712644355.4,286046995.1,P
1712644375.2,286046994.2,P
1712644395.1,286046991.2,P
1712644396.0,286046991.2,Y
1712644415.8,286046998.7,P
1712644435.6,286046996.3,N
1712644455.5,286046997.5,N
1712644475.3,286046995.2,Y
1712644495.2,286047001.4,P
1712644515.9,286047004.5,N
1712644535.7,286047006.6,N
1712644555.6,286047005.1,N
1712644575.4,286047002.4,N
1712644595.2,286046999.5,N
1712644615.1,286047003.5,N
1712644616.0,286047003.5,N
1712644635.8,286046999.7,N
1712644655.7,286046998.4,N
1712644675.5,286047000.2,N
1712644695.3,286046995.4,N
1712644715.2,286046996.4,N
1712644735.0,286046997.2,N
1712644735.9,286046997.2,N
1712644755.7,286046992.7,N
1712644775.6,286046993.0,N
1712644795.4,286046989.2,N
1712644815.3,286046987.6,N
1712644835.1,286046990.1,N
1712644836.0,286046990.1,N
1712644855.8,286046992.2,N
1712644875.7,286046990.1,N
1712644895.5,286046990.3,N
1712644915.3,286046991.5,N
1712644935.2,286046988.2,N
1712644955.0,286046989.0,N
1712644955.9,286046989.0,N
1712644975.8,286046991.4,N
1712644995.6,286046983.8,N
1712645015.4,286046983.7,N
1712645035.3,286046984.0,N
1712645055.1,286046986.3,N
1712645075.8,286046984.4,N
1712645095.7,286046987.7,N
1712645115.5,286046984.8,N
1712645135.4,286046981.0,Y
1712645155.2,286046991.1,P
1712645175.0,286046992.1,P
1712645175.9,286046992.1,P
1712645195.8,286046990.2,Y
1712645215.6,286046998.3,P
1712645235.4,286047000.4,N
1712645255.3,286047007.7,N
1712645275.1,286047008.7,N
1712645295.9,286047003.5,N
1712645315.7,286047001.3,N
1712645335.5,286047003.2,N
1712645355.4,286047008.5,N
1712645375.2,286047007.4,N
1712645395.0,286047002.8,N
1712645395.9,286047002.8,N
1712645415.8,286047001.4,N
1712645435.6,286047000.3,N
1712645455.5,286047001.5,N
1712645475.3,286046998.4,N
1712645495.1,286046992.4,N
1712645515.9,286046987.3,N
1712645535.7,286046984.4,N
1712645555.5,286046985.6,N
1712645575.4,286046988.4,N
1712645595.2,286046992.5,N
1712645615.1,286046990.8,N
1712645616.0,286046990.8,N
1712645635.8,286046994.6,N
1712645655.6,286046999.4,N
1712645675.5,286046994.2,N
1712645695.3,286046991.5,N
1712645715.2,286046992.5,N
1712645735.9,286046990.8,N
1712645755.7,286046990.5,N
1712645775.6,286046990.8,N
1712645795.4,286046990.6,N
1712645815.2,286046991.4,N
1712645835.1,286046991.6,N
1712645836.0,286046991.6,N
1712645855.8,286046987.3,N
1712645875.7,286046988.4,N
1712645895.5,286046987.8,N
1712645915.3,286046984.2,N
1712645935.2,286046983.3,Y
1712645955.0,286046986.0,P
1712645955.9,286046986.0,P
1712645975.7,286046984.8,P
1712645995.6,286046986.8,Y
